sat.trackr.live / text

‹ back to catalog

STARLINK-5732

NORAD 55572 · 2023-020D

PAYLOAD ACTIVE UNKNOWN

§ Identity

Operator
Country
US
Launch date
2023-02-12
Launch site
AFETR
Launch vehicle
Mass (kg)
RCS (m²)

Purposes: comms

External: N2YO · Heavens-Above · Gunter

§ Orbital elements

Epoch: 2026-09-20T05:11:39.230592Z

Period
94.27 min
Inclination
43.0038°
Eccentricity
0.0001080
Mean motion
15.27574473 rev/d
Perigee alt
482.3 km
Apogee alt
483.8 km
Semi-major
6,861.2 km
B*
-1.4092e-5
RAAN
349.9884°
Arg perigee
274.4035°
Mean anomaly
85.6693°
Rev number
19,862

§ Raw data

STARLINK-57321 55572U 23020D   26263.21642628 -.00000650  00000+0 -14092-4 0  99932 55572  43.0038 349.9884 0001080 274.4035  85.6693 15.27574473198621

JSON: /api/v1/satellites/55572 · /tle

For live sub-satellite position, see the globe view (requires WebGL).

§ Visibility from observer

Set your observer location to see the next 7 days of passes ≥ 10°. The values pass through the URL so the page stays shareable.

No JS? Fill the form by hand. The geolocation button needs JavaScript.